SL-16 DEB, 27007

Orbit data source: Space-Track

SL-16 DEB, 27007 is space debris in SSO originally from a launch on Mon, 10 Dec 2001 UTC launched from the Tyuratam Missile And Space Complex (TTMTR). Debris objects in space refer to the collection of defunct objects orbiting the Earth. Examples of debris include non-operational satellites, rocket bodies, and fragments generated from explosions, collisions, or faulty payload assembly.

Loading next visibility...
Identifier
27007, 2001-056G
Orbit
SSO
Country
Flag of CISCIS
Related business
Manufacturer
NII EM
Mission
Spacecraft
Bus & Motor
AR, Unknown motor
Mass
344 kg wet, 344 kg dry
Launch date (UTC)
2001-12-10 (24 years ago)
Launch vehicle
Unknown
Launch site
Tyuratam Missile And Space Complex (TTMTR)
Object type
Payload
Rocket body
Debris
Shape & HBR
Box, 1.9 m
Radar Cross Section
11.505 m², Small (<0.1 m²)

Expand to show TLE details & history
Last TLE update: 15 hours ago

TLE from 15 hours ago
0 SL-16 DEB
1 27007U 01056G   25310.22518541  .00001424  00000-0  14338-2 0  9999
2 27007  99.4791  99.6730 0013505 182.0267 178.0832 13.79180626197886
Epoch: 2025-11-06T05:24Z
TLE epoch observation values (Epoch: 2025-11-06T05:24:16.019Z)
Latitude
0.00001°
Longitude
-27.08031°
Altitude
979.543 km
Speed
7.357 km/s
True Right ascension
06h 38m 41s
True Declination
0° 00' 00"
Sunlit
Object was in full shadow at epoch
Visualization orbit readout
Latitude
Unknown
Longitude
Unknown
Altitude
Unknown
Speed
Unknown
Apparent Right ascension
Unknown
Apparent Declination
Unknown
Sunlit
N/A
Visualization observer readout
Local Sidereal Time
15:59:06
Azimuth
Unknown
Elevation
Unknown
Doppler factor
Unknown
Orbital elements
Apogee altitude
973.961 km
Perigee altitude
954.13 km
Semi-major axis
7,342.183 km
Eccentricity
0.00135
Inclination
99.4791°
RAAN
99.673°
Arg. of periapsis
182.0267°
True anomaly
178.08837°
Mean anomaly
178.0832°
Eccentric anomaly
178.08578°
Mean motion
3.44989 °/min
Orbital period
104.35 mins
BSTAR
0.0014338
Loading maneuver chart data...
Computing Atmospheric mass density...
Loading historical data...
Loading historical data...
Loading historical data...
Loading historical data...
Loading historical data...
Loading historical data...
Loading historical data...

Documentation

Showing up to 5 results
|